This demonstration page uses our WeatherBlox Daily Observations layout. Learn more.

Left ArrowRight Arrow

Hourly Observations for March 16, 2021

Temp ( °F °C ) Dew Point ( °F °C ) Humidity (%) Winds ( mph kmh ) Pressure ( in mb ) Visibility ( mi km ) Precip ( " mm )
12:53 am 00:53 Mostly Cloudy 33 0.6 26 -3.3 75 75 N 9 15 30.05 1018 10 16 N/A
1:09 am 01:09 Mostly Cloudy 33 0.6 25 -3.9 72 72 NNE 12 19 30.09 1019 10 16 N/A
1:20 am 01:20 Partly Cloudy 33 0.6 25 -3.9 72 72 NNE 10 17 30.09 1019 10 16 N/A
1:31 am 01:31 Mostly Cloudy 32 undefined 25 -3.9 75 75 NNE 9 15 30.10 1019 10 16 N/A
1:53 am 01:53 Cloudy 32 undefined 25 -3.9 75 75 N 5 7 30.06 1018 10 16 N/A
2:53 am 02:53 Mostly Cloudy 32 undefined 25 -3.9 75 75 NNE 7 11 30.06 1018 10 16 N/A
3:42 am 03:42 Partly Cloudy 27 -2.8 23 -5 85 85 W 6 9 30.15 1021 10 16 N/A
3:53 am 03:53 Mostly Clear 26 -3.3 23 -5 88 88 WNW 3 6 30.08 1019 10 16 N/A
4:53 am 04:53 Clear 25 -3.9 23 -5 92 92 N N/A 30.09 1019 10 16 N/A
5:53 am 05:53 Clear 24 -4.4 22 -5.6 91 91 WNW 5 7 30.11 1020 10 16 N/A
6:53 am 06:53 Clear 23 -5 20 -6.7 88 88 W 5 7 30.12 1020 10 16 N/A
7:53 am 07:53 Sunny 23 -5 20 -6.7 88 88 SW 6 9 30.12 1020 10 16 N/A
8:53 am 08:53 Sunny 25 -3.9 22 -5.6 88 88 SW 6 9 30.13 1020 10 16 N/A
9:53 am 09:53 Sunny 30 -1.1 23 -5 75 75 W 8 13 30.12 1020 10 16 N/A
10:53 am 10:53 Sunny 35 1.7 23 -5 61 61 WSW 9 15 30.10 1019 10 16 N/A
11:53 am 11:53 Sunny 39 3.9 21 -6.1 48 48 WNW 9 15 30.08 1019 10 16 N/A
12:53 pm 12:53 Sunny 42 5.6 22 -5.6 45 45 W 10 17 30.06 1018 10 16 N/A
1:53 pm 13:53 Sunny 44 6.7 21 -6.1 40 40 WSW 7 11 30.04 1017 10 16 N/A
2:53 pm 14:53 Sunny 47 8.3 19 -7.2 33 33 W 3 6 30.03 1017 10 16 N/A
3:53 pm 15:53 Sunny 48 8.9 21 -6.1 34 34 VRB 3 6 30.02 1017 10 16 N/A
4:53 pm 16:53 Sunny 49 9.4 21 -6.1 33 33 N N/A 30.01 1016 10 16 N/A
5:53 pm 17:53 Sunny 50 10 21 -6.1 32 32 N N/A 30.02 1017 10 16 N/A
6:53 pm 18:53 Sunny 48 8.9 22 -5.6 36 36 E 5 7 30.02 1017 10 16 N/A
7:53 pm 19:53 Clear 37 2.8 25 -3.9 62 62 SE 7 11 30.05 1018 10 16 N/A
8:53 pm 20:53 Clear 35 1.7 22 -5.6 59 59 E 7 11 30.07 1018 10 16 N/A
9:53 pm 21:53 Mostly Clear 34 1.1 20 -6.7 56 56 E 5 7 30.07 1018 10 16 N/A
10:53 pm 22:53 Cloudy 34 1.1 21 -6.1 59 59 NE 7 11 30.07 1018 10 16 N/A
11:53 pm 23:53 Mostly Cloudy 33 0.6 20 -6.7 58 58 ENE 9 15 30.07 1018 10 16 N/A

Powered by AerisWeather